When you browse on this site, cookies collect data to enhance your experience and personalize the content and advertising you see.
Visit our Privacy Policy to learn more. By continuing to use the site, you agree to this use of cookies and data.
  • In Romania
  • List of Countries
  • For 7 days
  • Water Temperature
  • Satellite Maps
  • Weather Map
  • Weather Widgets
  • user-avatar
    Login

    Hourly Weather Haldwani

    Today, 17 July, Wednesday

    Time Temperature Precipitation Wind Pressure Humidity
    00:00 +27°C° 0.6 mm 1 mps 716 mmHg 81%
    01:00 +27°C° 0.6 mm 1 mps 716 mmHg 83%
    02:00 +26°C° 0.6 mm 1 mps 716 mmHg 84%
    03:00 +26°C° 0.2 mm 1 mps 716 mmHg 84%
    04:00 +26°C° 0.2 mm 1 mps 716 mmHg 84%
    05:00 +26°C° 0 mm 1 mps 716 mmHg 87%
    06:00 +27°C° 0 mm 1 mps 716 mmHg 82%
    07:00 +29°C° 0 mm 1 mps 716 mmHg 77%
    08:00 +30°C° 0 mm 1 mps 716 mmHg 72%
    09:00 +31°C° 0.6 mm 1 mps 716 mmHg 69%
    10:00 +33°C° 0.6 mm 1 mps 717 mmHg 66%
    11:00 +34°C° 0.6 mm 1 mps 717 mmHg 63%
    12:00 +34°C° 0.4 mm 1 mps 716 mmHg 60%
    13:00 +35°C° 0.4 mm 1 mps 715 mmHg 57%
    14:00 +36°C° 0.4 mm 2 mps 715 mmHg 54%
    15:00 +35°C° 0.3 mm 1 mps 714 mmHg 56%
    16:00 +34°C° 0.3 mm 1 mps 714 mmHg 59%
    17:00 +34°C° 0.3 mm 1 mps 714 mmHg 61%
    18:00 +32°C° 0.1 mm 1 mps 715 mmHg 65%
    19:00 +31°C° 0.1 mm 1 mps 715 mmHg 68%
    20:00 +30°C° 0.1 mm 2 mps 715 mmHg 72%
    21:00 +29°C° 0 mm 2 mps 715 mmHg 72%
    22:00 +29°C° 0 mm 2 mps 715 mmHg 71%
    23:00 +29°C° 0 mm 2 mps 716 mmHg 71%

    Tomorrow, 18 July, Thursday

    Time Temperature Precipitation Wind Pressure Humidity
    00:00 +29°C° 0.1 mm 1 mps 715 mmHg 72%
    01:00 +28°C° 0.1 mm 1 mps 715 mmHg 73%
    02:00 +28°C° 0.1 mm 1 mps 715 mmHg 73%
    03:00 +28°C° 0 mm 1 mps 715 mmHg 74%
    04:00 +28°C° 0 mm 1 mps 715 mmHg 74%
    05:00 +28°C° 0 mm 1 mps 715 mmHg 74%
    06:00 +29°C° 0 mm 1 mps 715 mmHg 70%
    07:00 +31°C° 0 mm 1 mps 716 mmHg 66%
    08:00 +33°C° 0 mm 1 mps 716 mmHg 61%
    09:00 +34°C° 0.2 mm 1 mps 716 mmHg 59%
    10:00 +35°C° 0.2 mm 1 mps 716 mmHg 56%
    11:00 +36°C° 0.2 mm 1 mps 716 mmHg 53%
    12:00 +36°C° 0.8 mm 1 mps 716 mmHg 55%
    13:00 +36°C° 0.8 mm 1 mps 715 mmHg 56%
    14:00 +35°C° 0.8 mm 1 mps 715 mmHg 58%
    15:00 +34°C° 0.9 mm 1 mps 714 mmHg 62%
    16:00 +33°C° 0.9 mm 1 mps 714 mmHg 66%
    17:00 +32°C° 0.9 mm 1 mps 714 mmHg 70%
    18:00 +32°C° 0 mm 1 mps 714 mmHg 71%
    19:00 +31°C° 0 mm 1 mps 715 mmHg 73%
    20:00 +30°C° 0 mm 1 mps 715 mmHg 75%
    21:00 +30°C° 0.1 mm 1 mps 715 mmHg 75%
    22:00 +29°C° 0.1 mm 1 mps 715 mmHg 75%
    23:00 +29°C° 0.1 mm 1 mps 715 mmHg 76%

    Day after tomorrow, 19 July, Friday

    Time Temperature Precipitation Wind Pressure Humidity
    00:00 +29°C° 0.3 mm 1 mps 715 mmHg 77%
    01:00 +28°C° 0.3 mm 1 mps 715 mmHg 78%
    02:00 +28°C° 0.3 mm 1 mps 715 mmHg 79%
    03:00 +28°C° 0.1 mm 1 mps 715 mmHg 78%
    04:00 +28°C° 0.1 mm 1 mps 715 mmHg 78%
    05:00 +28°C° 0.1 mm 1 mps 715 mmHg 77%
    06:00 +29°C° 0.2 mm 1 mps 716 mmHg 73%
    07:00 +31°C° 0.2 mm 1 mps 716 mmHg 70%
    08:00 +31°C° 0.2 mm 0 mps 716 mmHg 66%
    09:00 +34°C° 0.4 mm 1 mps 716 mmHg 62%
    10:00 +35°C° 0.4 mm 1 mps 716 mmHg 58%
    11:00 +36°C° 0.4 mm 1 mps 716 mmHg 55%
    12:00 +36°C° 0.4 mm 1 mps 716 mmHg 53%
    13:00 +37°C° 0.4 mm 1 mps 716 mmHg 52%
    14:00 +37°C° 0.4 mm 1 mps 715 mmHg 51%
    15:00 +36°C° 0.2 mm 1 mps 715 mmHg 55%
    16:00 +35°C° 0.2 mm 1 mps 715 mmHg 59%
    17:00 +36°C° 0.2 mm 2 mps 715 mmHg 62%
    18:00 +34°C° 0.1 mm 2 mps 715 mmHg 65%
    19:00 +32°C° 0.1 mm 1 mps 715 mmHg 68%
    20:00 +31°C° 0.1 mm 1 mps 716 mmHg 71%
    21:00 +31°C° 0 mm 1 mps 716 mmHg 70%
    22:00 +31°C° 0 mm 1 mps 716 mmHg 70%
    23:00 +30°C° 0 mm 1 mps 716 mmHg 70%

    20 July, Saturday

    Time Temperature Precipitation Wind Pressure Humidity
    00:00 +30°C° 0 mm 1 mps 715 mmHg 70%
    01:00 +30°C° 0 mm 1 mps 715 mmHg 70%
    02:00 +30°C° 0 mm 1 mps 715 mmHg 70%
    03:00 +30°C° 0 mm 1 mps 715 mmHg 71%
    04:00 +29°C° 0 mm 1 mps 715 mmHg 72%
    05:00 +29°C° 0 mm 1 mps 715 mmHg 72%
    06:00 +31°C° 0.1 mm 1 mps 715 mmHg 68%
    07:00 +33°C° 0.1 mm 1 mps 716 mmHg 64%
    08:00 +34°C° 0.1 mm 1 mps 716 mmHg 60%
    09:00 +35°C° 0.1 mm 1 mps 716 mmHg 57%
    10:00 +36°C° 0.1 mm 1 mps 716 mmHg 54%
    11:00 +38°C° 0.1 mm 2 mps 716 mmHg 51%
    12:00 +37°C° 0.8 mm 1 mps 716 mmHg 51%
    13:00 +37°C° 0.8 mm 1 mps 715 mmHg 52%
    14:00 +36°C° 0.8 mm 0 mps 715 mmHg 52%
    15:00 +37°C° 0.9 mm 1 mps 715 mmHg 55%
    16:00 +36°C° 0.9 mm 1 mps 714 mmHg 58%
    17:00 +36°C° 0.9 mm 1 mps 714 mmHg 62%
    18:00 +34°C° 0.4 mm 1 mps 714 mmHg 64%
    19:00 +33°C° 0.4 mm 1 mps 714 mmHg 67%
    20:00 +31°C° 0.4 mm 1 mps 715 mmHg 70%
    21:00 +31°C° 0.2 mm 1 mps 715 mmHg 71%
    22:00 +31°C° 0.2 mm 1 mps 715 mmHg 72%
    23:00 +30°C° 0.2 mm 1 mps 715 mmHg 72%

    21 July, Sunday

    Time Temperature Precipitation Wind Pressure Humidity
    00:00 +30°C° 0 mm 1 mps 714 mmHg 72%
    01:00 +30°C° 0 mm 1 mps 714 mmHg 72%
    02:00 +30°C° 0 mm 1 mps 714 mmHg 73%
    03:00 +30°C° 0 mm 1 mps 714 mmHg 73%
    04:00 +30°C° 0 mm 1 mps 714 mmHg 73%
    05:00 +30°C° 0 mm 1 mps 714 mmHg 73%
    06:00 +31°C° 0 mm 1 mps 714 mmHg 69%
    07:00 +33°C° 0 mm 1 mps 714 mmHg 65%
    08:00 +35°C° 0 mm 1 mps 714 mmHg 61%
    09:00 +35°C° 0.3 mm 1 mps 714 mmHg 59%
    10:00 +36°C° 0.3 mm 1 mps 714 mmHg 57%
    11:00 +37°C° 0.3 mm 1 mps 714 mmHg 55%
    12:00 +37°C° 0.8 mm 1 mps 714 mmHg 55%
    13:00 +38°C° 0.8 mm 2 mps 713 mmHg 54%
    14:00 +38°C° 0.8 mm 2 mps 713 mmHg 54%
    15:00 +38°C° 0.2 mm 2 mps 712 mmHg 55%
    16:00 +38°C° 0.2 mm 2 mps 712 mmHg 57%
    17:00 +38°C° 0.2 mm 2 mps 712 mmHg 58%
    18:00 +35°C° 0 mm 1 mps 712 mmHg 62%
    19:00 +34°C° 0 mm 1 mps 712 mmHg 65%
    20:00 +32°C° 0 mm 1 mps 713 mmHg 69%
    21:00 +32°C° 0.1 mm 1 mps 713 mmHg 69%
    22:00 +32°C° 0.1 mm 1 mps 713 mmHg 69%
    23:00 +32°C° 0.1 mm 1 mps 713 mmHg 69%

    22 July, Monday

    Time Temperature Precipitation Wind Pressure Humidity
    00:00 +31°C° 0.1 mm 1 mps 713 mmHg 71%
    01:00 +31°C° 0.1 mm 1 mps 713 mmHg 72%
    02:00 +30°C° 0.1 mm 1 mps 712 mmHg 73%
    03:00 +30°C° 0.1 mm 1 mps 712 mmHg 74%
    04:00 +30°C° 0.1 mm 1 mps 713 mmHg 75%
    05:00 +29°C° 0.1 mm 1 mps 713 mmHg 77%
    06:00 +31°C° 0.1 mm 1 mps 713 mmHg 74%
    07:00 +32°C° 0.1 mm 2 mps 713 mmHg 71%
    08:00 +34°C° 0.1 mm 2 mps 714 mmHg 68%
    09:00 +35°C° 0.6 mm 2 mps 713 mmHg 65%
    10:00 +35°C° 0.6 mm 1 mps 713 mmHg 63%
    11:00 +36°C° 0.6 mm 1 mps 713 mmHg 60%
    12:00 +38°C° 0.1 mm 2 mps 713 mmHg 55%
    13:00 +39°C° 0.1 mm 2 mps 712 mmHg 50%
    14:00 +40°C° 0.1 mm 3 mps 711 mmHg 46%
    15:00 +39°C° 0.1 mm 3 mps 711 mmHg 49%
    16:00 +39°C° 0.1 mm 2 mps 711 mmHg 51%
    17:00 +38°C° 0.1 mm 2 mps 711 mmHg 54%
    18:00 +37°C° 0 mm 2 mps 711 mmHg 57%
    19:00 +34°C° 0 mm 1 mps 711 mmHg 60%
    20:00 +33°C° 0 mm 1 mps 711 mmHg 63%
    21:00 +32°C° 0.1 mm 1 mps 712 mmHg 65%
    22:00 +32°C° 0.1 mm 1 mps 712 mmHg 66%
    23:00 +31°C° 0.1 mm 2 mps 712 mmHg 67%
    Show more